Visalia, CA

9:26 AM PDT on October 17, 2019 (GMT -0700)
Visalia Municipal

Weather History for KVIS - September, 2019

Change the Weather History Date:

Friday, September 20, 2019

  Actual Average Record
Temperature  
Mean Temperature 65 °F -  
Max Temperature 82 °F 85 °F 103 °F (1939)
Min Temperature 48 °F 57 °F 44 °F (2004)
Growing Degree Days 15 (Base 50)    
Moisture  
Dew Point 49 °F    
Average Humidity 58    
Maximum Humidity 93    
Minimum Humidity 29    
Precipitation  
Precipitation 0.00 in - - ()
Sea Level Pressure  
Sea Level Pressure 29.94 in    
Wind  
Wind Speed 3 mph (SW)    
Max Wind Speed 9 mph    
Max Gust Speed -    
Visibility 10 miles    
Events      
Averages and records for this station are not official NWS values.
T = Trace of Precipitation, MM = Missing Value Source: NWS Daily Summary

Daily Weather History Graph

Daily Weather History Graph

Search for Another Location

Airport or City:

Astronomy

Sep. 20, 2019 Rise Set
Actual Time 6:43 AM PDT 6:57 PM PDT
Civil Twilight 6:18 AM PDT 7:23 PM PDT
Nautical Twilight 5:47 AM PDT 7:53 PM PDT
Astronomical Twilight 5:17 AM PDT 8:23 PM PDT
Moon 11:01 PM PDT (9/20) 12:43 PM PDT (9/20)
Length of Visible Light 13h 05m
Length of Day
12h 13m
Waning Gibbous, 64% of the Moon is Illuminated
Sep 20
Waning Gibbous
Sep 21
Last Quarter
Sep 28
New
Oct 5
First Quarter
Oct 13
Full

Hourly Weather History & Observations

Time (PDT) Temp. Dew Point Humidity Pressure Visibility Wind Dir Wind Speed Gust Speed Precip Events Conditions
12:56 AM 60.1 °F 48.0 °F 64% 29.93 in 10.0 mi WNW 3.5 mph - N/A   Clear
1:56 AM 57.9 °F 48.0 °F 70% 29.93 in 10.0 mi NNW 4.6 mph - N/A   Clear
2:56 AM 54.0 °F 48.0 °F 80% 29.93 in 10.0 mi Calm Calm - N/A   Clear
3:56 AM 52.0 °F 46.9 °F 83% 29.94 in 10.0 mi Calm Calm - N/A   Clear
4:56 AM 50.0 °F 46.0 °F 86% 29.95 in 10.0 mi ESE 4.6 mph - N/A   Clear
5:56 AM 51.1 °F 48.0 °F 89% 29.96 in 10.0 mi SE 3.5 mph - N/A   Clear
6:56 AM 48.9 °F 46.9 °F 93% 29.97 in 10.0 mi ESE 5.8 mph - N/A   Clear
7:56 AM 54.0 °F 48.9 °F 83% 29.99 in 10.0 mi SE 4.6 mph - N/A   Clear
8:56 AM 60.1 °F 50.0 °F 69% 30.00 in 10.0 mi ESE 3.5 mph - N/A   Clear
9:56 AM 66.9 °F 50.0 °F 54% 30.00 in 4.0 mi South 4.6 mph - N/A   Haze
10:56 AM 71.1 °F 51.1 °F 49% 29.99 in 10.0 mi Variable 3.5 mph - N/A   Clear
11:56 AM 75.0 °F 52.0 °F 44% 29.99 in 10.0 mi WNW 8.1 mph - N/A   Clear
12:56 PM 77.0 °F 51.1 °F 40% 29.97 in 10.0 mi Calm Calm - N/A   Clear
1:56 PM 79.0 °F 48.0 °F 34% 29.94 in 10.0 mi Calm Calm - N/A   Clear
2:56 PM 81.0 °F 48.9 °F 33% 29.93 in 9.0 mi Calm Calm - N/A   Clear
3:56 PM 82.0 °F 46.9 °F 29% 29.92 in 10.0 mi West 6.9 mph - N/A   Clear
4:56 PM 81.0 °F 48.0 °F 31% 29.91 in 10.0 mi WNW 8.1 mph - N/A   Clear
5:56 PM 80.1 °F 48.0 °F 32% 29.89 in 10.0 mi WNW 9.2 mph - N/A   Clear
6:56 PM 75.9 °F 50.0 °F 40% 29.90 in 10.0 mi West 5.8 mph - N/A   Clear
7:56 PM 73.9 °F 48.9 °F 41% 29.91 in 10.0 mi Calm Calm - N/A   Clear
8:56 PM 64.9 °F 50.0 °F 58% 29.92 in 10.0 mi Calm Calm - N/A   Clear
9:56 PM 66.0 °F 51.1 °F 59% 29.93 in 10.0 mi Calm Calm - N/A   Clear
10:56 PM 64.0 °F 51.1 °F 63% 29.94 in 10.0 mi Calm Calm - N/A   Clear
11:56 PM 60.1 °F 51.1 °F 72% 29.94 in 10.0 mi SSE 3.5 mph - N/A   Clear